All
Smithton Airport (Smithton, Tasmania) SIO Weather
|
Smithton, Tasmania (SIO / YSMI)
Clear skies
Windy |
|
59 °F |
There is no TAF data available at SIO or any nearby airports.
Recent SIO METAR history
| Date | Time (AEST) | Flight Rules | Wind Dir. | Speed | Type | Height AGL (ft) | Visibility | Temp (°C) | Temp (°F) | Dew Point (°C) | Dew Point (°F) | Rel. Humid. | Pressure | Density Altitude | Remarks |
|---|---|---|---|---|---|---|---|---|---|---|---|---|---|---|---|
| 09-May | 03:00PM | n/a | 240° | 15 kt | Missing | 15° | 59° | 11° | 51° | 77% | 1024 mb | -288 ft | |||
| 09-May | 02:00PM | n/a | 230° | 16 kt | Missing | 16° | 60° | 10° | 50° | 68% | 1024 mb | -168 ft | |||
| 09-May | 01:00PM | n/a | 220° | 14 kt | Missing | 16° | 60° | 11° | 51° | 72% | 1024 mb | -168 ft | |||
| 09-May | 12:00PM | n/a | 230° | 15 kt | Missing | 16° | 60° | 12° | 53° | 77% | 1025 mb | -197 ft | |||
| 09-May | 11:00AM | n/a | 240° | 15 kt | Missing | 15° | 59° | 12° | 53° | 82% | 1025 mb | -317 ft | |||
| 09-May | 10:00AM | n/a | 230° | 11 kt | Missing | 13° | 55° | 12° | 53° | 94% | 1025 mb | -557 ft | |||
| 09-May | 09:00AM | n/a | 220° | 11 kt | Missing | 12° | 53° | 11° | 51° | 94% | 1025 mb | -677 ft | |||
| 09-May | 08:00AM | n/a | 210° | 12 kt | Missing | 11° | 51° | 11° | 51° | 100% | 1024 mb | -768 ft | |||
| 09-May | 07:00AM | n/a | 220° | 12 kt | Missing | 11° | 51° | 10° | 50° | 94% | 1024 mb | -768 ft | |||
| 09-May | 06:00AM | n/a | 230° | 9 kt | Missing | 11° | 51° | 10° | 50° | 94% | 1024 mb | -768 ft | |||
| 09-May | 05:00AM | n/a | 220° | 10 kt | Missing | 11° | 51° | 10° | 50° | 94% | 1023 mb | -738 ft | |||
| 09-May | 04:00AM | n/a | 220° | 12 kt | Missing | 10° | 50° | 9° | 48° | 93% | 1023 mb | -858 ft | |||
| 09-May | 03:00AM | n/a | 200° | 14 kt | Missing | 10° | 50° | 9° | 48° | 93% | 1023 mb | -858 ft | |||
| 09-May | 02:00AM | n/a | 210° | 11 kt | Missing | 10° | 50° | 9° | 48° | 93% | 1023 mb | -858 ft | |||
| 09-May | 01:00AM | n/a | 220° | 12 kt | Missing | 10° | 50° | 8° | 46° | 87% | 1023 mb | -858 ft | |||
| 09-May | 12:00AM | n/a | 210° | 11 kt | Missing | 11° | 51° | 8° | 46° | 82% | 1023 mb | -738 ft | |||
| 08-May | 11:00PM | n/a | 210° | 12 kt | Missing | 11° | 51° | 7° | 44° | 76% | 1023 mb | -738 ft | |||
| 08-May | 10:00PM | n/a | 220° | 14 kt | Missing | 11° | 51° | 8° | 46° | 82% | 1022 mb | -709 ft | |||
| 08-May | 09:00PM | n/a | 230° | 8 kt | Missing | 12° | 53° | 8° | 46° | 76% | 1022 mb | -589 ft | |||
| 08-May | 08:00PM | n/a | 230° | 9 kt | Missing | 12° | 53° | 8° | 46° | 76% | 1022 mb | -589 ft | |||
| 08-May | 07:00PM | n/a | 240° | 12 kt | Missing | 12° | 53° | 8° | 46° | 76% | 1022 mb | -589 ft | |||
| 08-May | 06:00PM | n/a | 240° | 12 kt | Missing | 12° | 53° | 9° | 48° | 82% | 1021 mb | -559 ft | |||
| 08-May | 05:00PM | n/a | 240° | 13 kt | Missing | 12° | 53° | 9° | 48° | 82% | 1020 mb | -530 ft | |||
| 08-May | 04:00PM | n/a | 220° | 13 kt | Missing | 13° | 55° | 9° | 48° | 77% | 1020 mb | -410 ft |
Login
| Your browser is unsupported. upgrade your browser |
